This is the latest recevied weather packets stored in our database for station/object G4KVI. If no packets are shown the sender has not sent any weather packets the latest 10 day(s).
| Time | Temp. | Humidity | Pressure | Rain* | Wind** | Luminosity | Snow |
|---|---|---|---|---|---|---|---|
| 1787819404 | 20° C | 91% | 1009.2 hPa | 0 mm | - | 319 W/m² | - |
| 1787819104 | 19.44° C | 92% | 1009.2 hPa | 0 mm | - | 309 W/m² | - |
| 1787818804 | 19.44° C | 92% | 1009.2 hPa | 0 mm | - | 205 W/m² | - |
| 1787818504 | 19.44° C | 93% | 1009.3 hPa | 0 mm | - | 184 W/m² | - |
| 1787818204 | 19.44° C | 93% | 1009.4 hPa | 0 mm | - | 121 W/m² | - |
| 1787817904 | 18.89° C | 93% | 1009.2 hPa | 0 mm | - | 109 W/m² | - |
| 1787817604 | 18.89° C | 93% | 1009.3 hPa | 0 mm | - | 116 W/m² | - |
| 1787817304 | 18.89° C | 94% | 1009.1 hPa | 0 mm | - | 86 W/m² | - |
| 1787817004 | 18.89° C | 94% | 1009.2 hPa | 0 mm | - | 110 W/m² | - |
| 1787816704 | 18.89° C | 94% | 1009.3 hPa | 0 mm | - | 125 W/m² | - |
| 1787816404 | 18.89° C | 94% | 1009 hPa | 0 mm | - | 131 W/m² | - |
| 1787816104 | 18.89° C | 94% | 1009.1 hPa | 0 mm | - | 74 W/m² | - |
| 1787815804 | 18.33° C | 94% | 1009 hPa | 0 mm | - | 122 W/m² | - |
| 1787815504 | 18.33° C | 95% | 1009 hPa | 0 mm | - | 102 W/m² | - |
| 1787815204 | 18.33° C | 95% | 1009.3 hPa | 0 mm | - | 76 W/m² | - |
| 1787814903 | 18.33° C | 94% | 1009.3 hPa | 0 mm | - | 48 W/m² | - |
| 1787814604 | 18.33° C | 95% | 1009 hPa | 0 mm | - | 58 W/m² | - |
| 1787814303 | 18.33° C | 95% | 1009.1 hPa | 0 mm | - | 87 W/m² | - |
| 1787814009 | 18.33° C | 95% | 1009 hPa | 0 mm | - | 67 W/m² | - |
| 1787813704 | 18.33° C | 95% | 1009 hPa | 0 mm | - | 61 W/m² | - |
| 1787813404 | 18.33° C | 95% | 1009.3 hPa | 0 mm | - | 52 W/m² | - |
| 1787813103 | 17.78° C | 95% | 1009.2 hPa | 0 mm | - | 42 W/m² | - |
| 1787812804 | 17.78° C | 94% | 1009.1 hPa | 0 mm | - | 31 W/m² | - |
| 1787812504 | 17.78° C | 94% | 1009.3 hPa | 0 mm | - | 30 W/m² | - |
| 1787812204 | 17.78° C | 94% | 1009.3 hPa | 0 mm | - | 23 W/m² | - |
* Rain latest hour (hover to see other rain measurements)
** Current wind speed in m/s (hover to see current wind gust speed)